When you browse on this site, cookies collect data to enhance your experience and personalize the content and advertising you see.
Visit our Privacy Policy to learn more. By continuing to use the site, you agree to this use of cookies and data.
  • In Czech Republic
  • List of Countries
  • For 7 days
  • Water Temperature
  • Satellite Maps
  • Weather Map
  • Weather Widgets
  • user-avatar
    Login

    Hourly Weather Chihuahua

    Today, 25 June, Tuesday

    Time Temperature Precipitation Wind Pressure Humidity
    00:00 +28°C° 0 mm 2 mps 642 mmHg 21%
    01:00 +27°C° 0 mm 2 mps 642 mmHg 26%
    02:00 +25°C° 0 mm 1 mps 642 mmHg 32%
    03:00 +25°C° 0 mm 1 mps 641 mmHg 36%
    04:00 +24°C° 0 mm 1 mps 641 mmHg 40%
    05:00 +23°C° 0 mm 1 mps 641 mmHg 43%
    06:00 +24°C° 0 mm 1 mps 642 mmHg 41%
    07:00 +26°C° 0 mm 1 mps 642 mmHg 40%
    08:00 +27°C° 0 mm 1 mps 643 mmHg 38%
    09:00 +29°C° 0 mm 2 mps 643 mmHg 32%
    10:00 +30°C° 0 mm 2 mps 644 mmHg 27%
    11:00 +33°C° 0 mm 3 mps 644 mmHg 22%
    12:00 +34°C° 0 mm 3 mps 644 mmHg 19%
    13:00 +35°C° 0 mm 3 mps 643 mmHg 17%
    14:00 +37°C° 0 mm 4 mps 643 mmHg 15%
    15:00 +36°C° 0 mm 4 mps 643 mmHg 15%
    16:00 +36°C° 0 mm 4 mps 643 mmHg 15%
    17:00 +36°C° 0 mm 5 mps 642 mmHg 16%
    18:00 +35°C° 0 mm 4 mps 642 mmHg 18%
    19:00 +34°C° 0 mm 4 mps 643 mmHg 20%
    20:00 +33°C° 0 mm 4 mps 643 mmHg 22%
    21:00 +31°C° 0 mm 3 mps 643 mmHg 23%
    22:00 +30°C° 0 mm 3 mps 643 mmHg 24%
    23:00 +29°C° 0 mm 3 mps 644 mmHg 26%

    Tomorrow, 26 June, Wednesday

    Time Temperature Precipitation Wind Pressure Humidity
    00:00 +28°C° 0 mm 2 mps 644 mmHg 32%
    01:00 +27°C° 0 mm 2 mps 643 mmHg 38%
    02:00 +26°C° 0 mm 2 mps 643 mmHg 44%
    03:00 +26°C° 0 mm 2 mps 643 mmHg 45%
    04:00 +25°C° 0 mm 2 mps 643 mmHg 47%
    05:00 +25°C° 0 mm 1 mps 643 mmHg 48%
    06:00 +26°C° 0 mm 1 mps 644 mmHg 44%
    07:00 +27°C° 0 mm 2 mps 645 mmHg 40%
    08:00 +28°C° 0 mm 2 mps 645 mmHg 35%
    09:00 +30°C° 0 mm 2 mps 645 mmHg 31%
    10:00 +32°C° 0 mm 2 mps 645 mmHg 26%
    11:00 +34°C° 0 mm 3 mps 646 mmHg 22%
    12:00 +35°C° 0 mm 3 mps 645 mmHg 20%
    13:00 +36°C° 0 mm 3 mps 645 mmHg 17%
    14:00 +37°C° 0 mm 4 mps 645 mmHg 15%
    15:00 +37°C° 0 mm 4 mps 645 mmHg 14%
    16:00 +37°C° 0 mm 4 mps 644 mmHg 14%
    17:00 +37°C° 0 mm 4 mps 644 mmHg 14%
    18:00 +35°C° 0 mm 5 mps 644 mmHg 16%
    19:00 +34°C° 0 mm 6 mps 644 mmHg 18%
    20:00 +33°C° 0 mm 6 mps 644 mmHg 21%
    21:00 +32°C° 0 mm 6 mps 644 mmHg 27%
    22:00 +29°C° 0 mm 6 mps 645 mmHg 34%
    23:00 +28°C° 0 mm 5 mps 645 mmHg 41%

    Day after tomorrow, 27 June, Thursday

    Time Temperature Precipitation Wind Pressure Humidity
    00:00 +27°C° 0 mm 4 mps 645 mmHg 45%
    01:00 +26°C° 0 mm 3 mps 644 mmHg 48%
    02:00 +26°C° 0 mm 1 mps 644 mmHg 52%
    03:00 +25°C° 0 mm 1 mps 644 mmHg 53%
    04:00 +25°C° 0 mm 1 mps 644 mmHg 55%
    05:00 +24°C° 0 mm 1 mps 644 mmHg 57%
    06:00 +25°C° 0 mm 1 mps 645 mmHg 54%
    07:00 +26°C° 0 mm 1 mps 645 mmHg 51%
    08:00 +27°C° 0 mm 1 mps 646 mmHg 47%
    09:00 +29°C° 0 mm 2 mps 646 mmHg 42%
    10:00 +30°C° 0 mm 2 mps 646 mmHg 37%
    11:00 +33°C° 0 mm 3 mps 646 mmHg 32%
    12:00 +34°C° 0 mm 3 mps 646 mmHg 28%
    13:00 +34°C° 0 mm 4 mps 646 mmHg 24%
    14:00 +35°C° 0 mm 4 mps 646 mmHg 20%
    15:00 +35°C° 0 mm 4 mps 645 mmHg 19%
    16:00 +35°C° 0 mm 4 mps 645 mmHg 19%
    17:00 +35°C° 0 mm 5 mps 645 mmHg 18%
    18:00 +34°C° 0 mm 5 mps 645 mmHg 19%
    19:00 +33°C° 0 mm 5 mps 645 mmHg 21%
    20:00 +32°C° 0 mm 4 mps 645 mmHg 22%
    21:00 +30°C° 0 mm 4 mps 645 mmHg 27%
    22:00 +30°C° 0 mm 4 mps 645 mmHg 32%
    23:00 +29°C° 0 mm 4 mps 645 mmHg 37%

    28 June, Friday

    Time Temperature Precipitation Wind Pressure Humidity
    00:00 +28°C° 0 mm 4 mps 645 mmHg 41%
    01:00 +27°C° 0 mm 4 mps 645 mmHg 45%
    02:00 +26°C° 0 mm 3 mps 645 mmHg 49%
    03:00 +25°C° 0 mm 3 mps 645 mmHg 51%
    04:00 +25°C° 0 mm 2 mps 645 mmHg 53%
    05:00 +24°C° 0 mm 1 mps 645 mmHg 55%
    06:00 +25°C° 0 mm 1 mps 645 mmHg 51%
    07:00 +27°C° 0 mm 2 mps 645 mmHg 47%
    08:00 +28°C° 0 mm 2 mps 646 mmHg 44%
    09:00 +29°C° 0 mm 2 mps 646 mmHg 38%
    10:00 +31°C° 0 mm 3 mps 646 mmHg 33%
    11:00 +33°C° 0 mm 3 mps 646 mmHg 28%
    12:00 +34°C° 0 mm 4 mps 646 mmHg 26%
    13:00 +35°C° 0 mm 4 mps 646 mmHg 23%
    14:00 +36°C° 0 mm 4 mps 645 mmHg 21%
    15:00 +36°C° 0 mm 4 mps 645 mmHg 20%
    16:00 +36°C° 0 mm 4 mps 645 mmHg 20%
    17:00 +36°C° 0 mm 4 mps 645 mmHg 19%
    18:00 +35°C° 0 mm 5 mps 645 mmHg 20%
    19:00 +34°C° 0 mm 5 mps 645 mmHg 21%
    20:00 +33°C° 0 mm 5 mps 645 mmHg 22%
    21:00 +32°C° 0 mm 4 mps 645 mmHg 25%
    22:00 +30°C° 0 mm 3 mps 645 mmHg 28%
    23:00 +29°C° 0 mm 2 mps 645 mmHg 31%

    29 June, Saturday

    Time Temperature Precipitation Wind Pressure Humidity
    00:00 +28°C° 0 mm 2 mps 645 mmHg 34%
    01:00 +27°C° 0 mm 2 mps 645 mmHg 38%
    02:00 +26°C° 0 mm 3 mps 644 mmHg 41%
    03:00 +26°C° 0 mm 2 mps 644 mmHg 43%
    04:00 +25°C° 0 mm 2 mps 644 mmHg 46%
    05:00 +24°C° 0 mm 2 mps 644 mmHg 48%
    06:00 +25°C° 0 mm 2 mps 645 mmHg 45%
    07:00 +27°C° 0 mm 2 mps 645 mmHg 42%
    08:00 +28°C° 0 mm 3 mps 646 mmHg 39%
    09:00 +29°C° 0 mm 3 mps 646 mmHg 35%
    10:00 +30°C° 0 mm 3 mps 646 mmHg 32%
    11:00 +33°C° 0 mm 3 mps 646 mmHg 28%
    12:00 +34°C° 0 mm 4 mps 646 mmHg 25%
    13:00 +34°C° 0 mm 4 mps 646 mmHg 23%
    14:00 +35°C° 0 mm 4 mps 645 mmHg 20%
    15:00 +35°C° 0 mm 5 mps 645 mmHg 19%
    16:00 +35°C° 0 mm 5 mps 645 mmHg 19%
    17:00 +35°C° 0 mm 5 mps 644 mmHg 18%
    18:00 +34°C° 0 mm 5 mps 644 mmHg 18%
    19:00 +33°C° 0 mm 4 mps 645 mmHg 18%
    20:00 +31°C° 0 mm 3 mps 645 mmHg 18%
    21:00 +30°C° 0 mm 3 mps 645 mmHg 20%
    22:00 +29°C° 0 mm 2 mps 645 mmHg 21%
    23:00 +28°C° 0 mm 2 mps 645 mmHg 22%

    30 June, Sunday

    Time Temperature Precipitation Wind Pressure Humidity
    00:00 +27°C° 0 mm 2 mps 645 mmHg 25%
    01:00 +26°C° 0 mm 2 mps 644 mmHg 29%
    02:00 +25°C° 0 mm 1 mps 644 mmHg 32%
    03:00 +25°C° 0 mm 1 mps 644 mmHg 34%
    04:00 +24°C° 0 mm 1 mps 643 mmHg 37%
    05:00 +23°C° 0 mm 1 mps 643 mmHg 39%
    06:00 +25°C° 0 mm 2 mps 644 mmHg 36%
    07:00 +26°C° 0 mm 2 mps 644 mmHg 33%
    08:00 +28°C° 0 mm 2 mps 645 mmHg 30%
    09:00 +29°C° 0 mm 3 mps 645 mmHg 27%
    10:00 +31°C° 0 mm 3 mps 645 mmHg 24%
    11:00 +33°C° 0 mm 3 mps 645 mmHg 21%
    12:00 +34°C° 0 mm 3 mps 645 mmHg 20%
    13:00 +35°C° 0 mm 3 mps 644 mmHg 19%
    14:00 +35°C° 0 mm 4 mps 644 mmHg 18%
    15:00 +35°C° 0 mm 4 mps 644 mmHg 17%
    16:00 +35°C° 0 mm 4 mps 644 mmHg 17%
    17:00 +35°C° 0 mm 4 mps 643 mmHg 17%
    18:00 +34°C° 0 mm 4 mps 644 mmHg 20%
    19:00 +33°C° 0 mm 4 mps 644 mmHg 23%
    20:00 +30°C° 0 mm 4 mps 644 mmHg 25%
    21:00 +30°C° 0 mm 3 mps 644 mmHg 29%
    22:00 +29°C° 0 mm 3 mps 645 mmHg 32%
    23:00 +28°C° 0 mm 3 mps 645 mmHg 35%
    Show more